Wahoo, NE

9:07 PM CDT on July 24, 2017 (GMT -0500)
Wahoo Municipal

Weather History for KAHQ - May, 2013

Change the Weather History Date:

Friday, May 24, 2013

  Actual Average Record
Temperature  
Mean Temperature 61 °F -  
Max Temperature 75 °F 77 °F 99 °F (1967)
Min Temperature 47 °F 53 °F 43 °F (1992)
Degree Days  
Heating Degree Days 4    
Growing Degree Days 11 (Base 50)    
Moisture  
Dew Point 47 °F    
Average Humidity 57    
Maximum Humidity 85    
Minimum Humidity 37    
Precipitation  
Precipitation 0.01 in - - ()
Sea Level Pressure  
Sea Level Pressure 30.18 in    
Wind  
Wind Speed 12 mph (SE)    
Max Wind Speed 26 mph    
Max Gust Speed 33 mph    
Visibility 10 miles    
Events Rain    
Averages and records for this station are not official NWS values.
T = Trace of Precipitation, MM = Missing Value Source: NWS Daily Summary

Daily Weather History Graph

Daily Weather History Graph

Search for Another Location

Airport or City:

Trip Planner

Search our weather history database for the weather conditions in past years. The results will help you decide how hot, cold, wet, or windy it might be!

Date:

Astronomy

May. 24, 2013 Rise Set
Actual Time 6:00 AM CDT 8:46 PM CDT
Civil Twilight 5:27 AM CDT 9:19 PM CDT
Nautical Twilight 4:47 AM CDT 10:00 PM CDT
Astronomical Twilight 4:00 AM CDT 10:46 PM CDT
Moon 8:29 PM CDT (5/24) 5:33 AM CDT (5/24)
Length of Visible Light 15h 51m
Length of Day
14h 46m
Full, 100% of the Moon is Illuminated
May 24
Full
May 24
Full
May 31
Last Quarter
Jun 8
New
Jun 16
First Quarter

Hourly Weather History & Observations

Time (CDT) Temp. Dew Point Humidity Pressure Visibility Wind Dir Wind Speed Gust Speed Precip Events Conditions
12:15 AM 55.9 °F 42.6 °F 61% 30.24 in 10.0 mi ENE 5.8 mph - N/A   Clear
12:35 AM 55.2 °F 42.8 °F 63% 30.24 in 10.0 mi ENE 8.1 mph - N/A   Clear
12:55 AM 54.7 °F 42.8 °F 64% 30.24 in 10.0 mi ENE 9.2 mph - N/A   Clear
1:15 AM 54.9 °F 43.0 °F 64% 30.24 in 10.0 mi East 8.1 mph - N/A   Clear
1:35 AM 53.1 °F 43.0 °F 69% 30.24 in 10.0 mi East 4.6 mph - N/A   Clear
1:55 AM 51.4 °F 43.0 °F 73% 30.23 in 10.0 mi ENE 10.4 mph - N/A   Clear
2:15 AM 53.8 °F 43.2 °F 67% 30.23 in 10.0 mi East 9.2 mph - N/A   Clear
2:35 AM 51.8 °F 43.3 °F 73% 30.23 in 10.0 mi East 6.9 mph - N/A   Clear
2:55 AM 51.8 °F 43.7 °F 74% 30.24 in 10.0 mi East 6.9 mph - N/A   Clear
3:15 AM 50.0 °F 43.2 °F 77% 30.25 in 10.0 mi SE 3.5 mph - N/A   Clear
3:35 AM 48.6 °F 42.8 °F 80% 30.24 in 10.0 mi East 9.2 mph - N/A   Clear
3:55 AM 49.5 °F 43.2 °F 79% 30.23 in 10.0 mi East 9.2 mph - N/A   Clear
4:15 AM 51.3 °F 43.3 °F 74% 30.24 in 10.0 mi ESE 6.9 mph - N/A   Clear
4:35 AM 51.1 °F 43.5 °F 75% 30.26 in 10.0 mi SE 8.1 mph - N/A   Clear
4:55 AM 49.5 °F 43.0 °F 78% 30.26 in 10.0 mi SE 6.9 mph - N/A   Clear
5:15 AM 48.2 °F 42.8 °F 82% 30.27 in 10.0 mi SE 5.8 mph - N/A   Clear
5:35 AM 47.5 °F 42.6 °F 83% 30.27 in 10.0 mi SE 5.8 mph - N/A   Clear
5:55 AM 47.3 °F 42.8 °F 84% 30.27 in 10.0 mi SE 4.6 mph - N/A   Scattered Clouds
6:15 AM 47.7 °F 43.3 °F 85% 30.27 in 10.0 mi SE 4.6 mph - N/A   Mostly Cloudy
6:35 AM 50.7 °F 45.0 °F 81% 30.28 in 10.0 mi SE 6.9 mph - N/A   Overcast
6:55 AM 51.8 °F 45.3 °F 79% 30.28 in 10.0 mi SE 8.1 mph - N/A   Mostly Cloudy
7:15 AM 52.7 °F 45.5 °F 76% 30.27 in 10.0 mi SE 9.2 mph - N/A   Mostly Cloudy
7:35 AM 53.6 °F 45.9 °F 75% 30.28 in 10.0 mi SE 8.1 mph - N/A   Mostly Cloudy
7:55 AM 54.1 °F 46.8 °F 76% 30.28 in 10.0 mi SE 9.2 mph - N/A   Mostly Cloudy
8:15 AM 55.4 °F 47.3 °F 74% 30.28 in 10.0 mi SE 12.7 mph - N/A   Overcast
8:35 AM 56.8 °F 48.0 °F 72% 30.28 in 7.0 mi SE 12.7 mph - N/A   Overcast
8:55 AM 56.5 °F 49.8 °F 78% 30.28 in 10.0 mi SE 9.2 mph - 0.01 in Rain Light Rain
9:15 AM 58.6 °F 50.4 °F 74% 30.27 in 10.0 mi SSE 13.8 mph - N/A   Mostly Cloudy
9:35 AM 61.3 °F 50.5 °F 68% 30.27 in 10.0 mi SSE 16.1 mph 21.9 mph N/A   Scattered Clouds
9:55 AM 63.3 °F 48.9 °F 59% 30.26 in 10.0 mi SE 20.7 mph 25.3 mph N/A   Mostly Cloudy
10:15 AM 63.0 °F 48.4 °F 59% 30.25 in 10.0 mi SSE 21.9 mph 28.8 mph N/A   Overcast
10:35 AM 65.8 °F 47.7 °F 52% 30.24 in 10.0 mi SSE 19.6 mph 33.4 mph N/A   Scattered Clouds
10:55 AM 66.2 °F 47.5 °F 51% 30.23 in 10.0 mi SSE 20.7 mph 31.1 mph N/A   Clear
11:15 AM 67.6 °F 48.0 °F 49% 30.23 in 10.0 mi SSE 21.9 mph 27.6 mph N/A   Clear
11:35 AM 67.3 °F 47.1 °F 48% 30.24 in 10.0 mi SSE 18.4 mph 28.8 mph N/A   Scattered Clouds
11:55 AM 68.0 °F 47.3 °F 47% 30.24 in 10.0 mi SSE 24.2 mph 29.9 mph N/A   Scattered Clouds
12:15 PM 70.0 °F 47.7 °F 45% 30.24 in 10.0 mi SSE 19.6 mph 33.4 mph N/A   Scattered Clouds
12:35 PM 70.2 °F 48.0 °F 45% 30.24 in 10.0 mi South 23.0 mph 28.8 mph N/A   Mostly Cloudy
12:55 PM 70.5 °F 47.5 °F 44% 30.23 in 10.0 mi South 17.3 mph 25.3 mph N/A   Overcast
1:15 PM 69.8 °F 46.9 °F 44% 30.22 in 10.0 mi South 15.0 mph 27.6 mph N/A   Overcast
1:35 PM 69.1 °F 45.9 °F 43% 30.21 in 10.0 mi SSE 17.3 mph 24.2 mph N/A   Overcast
1:55 PM 69.4 °F 45.7 °F 42% 30.20 in 10.0 mi SSE 19.6 mph 25.3 mph N/A   Overcast
2:15 PM 70.0 °F 45.1 °F 41% 30.20 in 10.0 mi SSE 19.6 mph 26.5 mph N/A   Overcast
2:35 PM 70.3 °F 45.5 °F 41% 30.19 in 10.0 mi SSE 17.3 mph 25.3 mph N/A   Overcast
2:55 PM 70.5 °F 45.7 °F 41% 30.17 in 10.0 mi SSE 18.4 mph 27.6 mph N/A   Overcast
3:15 PM 72.0 °F 45.5 °F 39% 30.15 in 10.0 mi SSE 20.7 mph 28.8 mph N/A   Overcast
3:35 PM 72.9 °F 45.3 °F 37% 30.14 in 10.0 mi SSE 21.9 mph 33.4 mph N/A   Overcast
3:55 PM 73.6 °F 45.9 °F 37% 30.12 in 10.0 mi SSE 23.0 mph 32.2 mph N/A   Scattered Clouds
4:15 PM 73.8 °F 46.8 °F 38% 30.10 in 10.0 mi SSE 26.5 mph 32.2 mph N/A   Clear
4:35 PM 74.3 °F 47.5 °F 39% 30.10 in 10.0 mi SSE 21.9 mph 32.2 mph N/A   Clear
4:55 PM 75.4 °F 47.8 °F 38% 30.09 in 10.0 mi SSE 24.2 mph 32.2 mph N/A   Clear
5:15 PM 75.2 °F 48.4 °F 39% 30.08 in 10.0 mi South 26.5 mph 32.2 mph N/A   Clear
5:35 PM 74.5 °F 48.4 °F 40% 30.08 in 10.0 mi SSE 25.3 mph 32.2 mph N/A   Clear
5:55 PM 74.3 °F 48.2 °F 40% 30.07 in 10.0 mi SSE 25.3 mph 32.2 mph N/A   Clear
6:15 PM 73.6 °F 48.4 °F 41% 30.04 in 10.0 mi SSE 25.3 mph 33.4 mph N/A   Clear
6:35 PM 73.6 °F 48.6 °F 41% 30.02 in 10.0 mi SSE 26.5 mph 33.4 mph N/A   Clear
6:55 PM 73.0 °F 48.6 °F 42% 30.02 in 10.0 mi SSE 24.2 mph 33.4 mph N/A   Clear
7:15 PM 73.0 °F 49.1 °F 43% 30.04 in 10.0 mi SSE 24.2 mph 29.9 mph N/A   Clear
7:35 PM 73.0 °F 49.8 °F 44% 30.04 in 10.0 mi SSE 19.6 mph 31.1 mph N/A   Clear
7:55 PM 72.7 °F 49.6 °F 44% 30.04 in 10.0 mi SSE 18.4 mph - N/A   Scattered Clouds
8:15 PM 71.6 °F 49.5 °F 45% 30.03 in 10.0 mi SSE 17.3 mph - N/A   Scattered Clouds
8:35 PM 71.1 °F 49.6 °F 47% 30.04 in 10.0 mi SSE 9.2 mph - N/A   Mostly Cloudy
8:55 PM 70.7 °F 49.5 °F 47% 30.07 in 10.0 mi South 15.0 mph - N/A   Overcast
9:15 PM 70.0 °F 49.8 °F 49% 30.08 in 10.0 mi SSE 11.5 mph - N/A   Overcast
9:35 PM 69.8 °F 50.0 °F 49% 30.09 in 10.0 mi SSE 13.8 mph - N/A   Overcast
9:55 PM 69.4 °F 50.4 °F 51% 30.10 in 10.0 mi SE 12.7 mph 18.4 mph N/A   Overcast
10:15 PM 69.3 °F 50.4 °F 51% 30.11 in 10.0 mi SE 13.8 mph - N/A   Overcast
10:35 PM 68.9 °F 50.7 °F 52% 30.11 in 10.0 mi SE 12.7 mph - N/A   Overcast
10:55 PM 68.5 °F 50.2 °F 52% 30.12 in 10.0 mi ESE 13.8 mph - N/A   Overcast
11:15 PM 68.2 °F 50.0 °F 52% 30.12 in 10.0 mi SE 12.7 mph - N/A   Overcast
11:35 PM 67.6 °F 49.6 °F 52% 30.11 in 10.0 mi SE 15.0 mph - N/A   Overcast
11:55 PM 67.3 °F 49.5 °F 53% 30.10 in 10.0 mi SE 16.1 mph - N/A   Overcast